FW8253 Weather Reports


time (UTC)temp
F
wind
direction
speed
knots
gust
knots
rain 1hr
in
rain 24hr
in
rain mn
in
humidity
%
barometer
mb
20260904145544 87 218 0.0 0.0 0.00 0.00 0.00 80 1018.5
20260904145039 87 208 0.0 0.0 0.00 0.00 0.00 79 1018.3
20260904144535 85 236 0.0 0.0 0.00 0.00 0.00 84 1018.2
20260904144031 87 56 0.0 0.0 0.00 0.00 0.00 81 1018.3
20260904143526 87 223 0.0 0.0 0.00 0.00 0.00 81 1018.5
20260904143023 87 196 0.0 0.0 0.00 0.00 0.00 80 1018.3
20260904142519 87 88 0.0 0.0 0.00 0.00 0.00 78 1018.3
20260904142019 87 220 0.0 0.0 0.00 0.00 0.00 80 1018.4
20260904141515 87 180 0.0 0.0 0.00 0.00 0.00 77 1018.4
20260904141010 86 156 0.0 0.0 0.00 0.00 0.00 80 1018.1
20260904140505 85 297 0.0 0.0 0.00 0.00 0.00 83 1018.2
20260904140004 84 249 0.0 0.0 0.00 0.00 0.00 85 1018.2
20260904135458 84 237 0.0 0.0 0.00 0.00 0.00 85 1018.1
20260904134955 84 192 0.0 0.0 0.00 0.00 0.00 86 1018.2
20260904134454 84 195 0.0 0.0 0.00 0.00 0.00 87 1018.1
20260904133949 83 155 0.0 0.0 0.00 0.00 0.00 88 1018.1
20260904133444 83 6 0.0 0.0 0.00 0.00 0.00 90 1018.1
20260904132939 85 167 0.0 0.0 0.00 0.00 0.00 88 1018.2
20260904132435 84 193 0.0 0.0 0.00 0.00 0.00 88 1018.2
20260904131934 82 189 0.0 0.0 0.00 0.00 0.00 91 1018.4
20260904131429 81 161 0.0 0.0 0.00 0.00 0.00 93 1018.4
20260904130925 81 212 0.0 0.0 0.00 0.00 0.00 95 1018.3
20260904130424 80 222 0.0 0.0 0.00 0.00 0.00 96 1018.5
20260904125919 78 182 0.0 0.0 0.00 0.00 0.00 98 1018.3
20260904125416 77 172 0.0 0.0 0.00 0.00 0.00 99 1018.7
20260904124915 77 227 0.0 0.0 0.00 0.00 0.00 99 1018.5
20260904124411 76 229 0.0 0.0 0.00 0.00 0.00 99 1018.4
20260904123907 75 237 0.0 0.0 0.00 0.00 0.00 99 1018.5
20260904123407 75 236 0.0 0.0 0.00 0.00 0.00 99 1018.5
20260904122903 74 236 0.0 0.0 0.00 0.00 0.00 99 1018.5
20260904122402 73 237 0.0 0.0 0.00 0.00 0.00 99 1018.4
20260904121856 73 240 0.0 0.0 0.00 0.00 0.00 99 1018.3
20260904121353 73 230 0.0 0.0 0.00 0.00 0.00 99 1018.6
20260904120849 73 228 0.0 0.0 0.00 0.00 0.00 99 1018.6
20260904120344 72 236 0.0 0.0 0.00 0.00 0.00 99 1018.4
20260904115839 72 235 0.0 0.0 0.00 0.00 0.00 99 1018.5
20260904115335 72 238 0.0 0.0 0.00 0.00 0.00 99 1018.4
20260904114829 72 238 0.0 0.0 0.00 0.00 0.00 99 1018.4
20260904114324 71 224 0.0 0.0 0.00 0.00 0.00 99 1018.4
20260904113819 71 224 0.0 0.0 0.00 0.00 0.00 99 1018.2
20260904113318 71 217 0.0 0.0 0.00 0.00 0.00 99 1018.3
20260904112813 71 212 0.0 0.0 0.00 0.00 0.00 99 1018.1
20260904112309 71 212 0.0 0.0 0.00 0.00 0.00 99 1017.9
20260904111804 71 212 0.0 0.0 0.00 0.00 0.00 99 1018.2
20260904111300 71 212 0.0 0.0 0.00 0.00 0.00 99 1018.1
20260904110755 71 228 0.0 0.0 0.00 0.00 0.00 99 1017.9
20260904110254 71 228 0.0 0.0 0.00 0.00 0.00 99 1018.0
20260904105750 71 227 0.0 0.0 0.00 0.00 0.00 99 1018.1
20260904105244 71 233 0.0 0.0 0.00 0.00 0.00 99 1017.9
20260904104739 71 233 0.0 0.0 0.00 0.00 0.00 99 1017.9
20260904104235 72 233 0.0 0.0 0.00 0.00 0.00 99 1017.7
20260904103732 72 233 0.0 0.0 0.00 0.00 0.00 99 1017.9
20260904103226 72 233 0.0 0.0 0.00 0.00 0.00 99 1017.9
20260904102722 72 233 0.0 0.0 0.00 0.00 0.00 99 1017.9
20260904102217 72 233 0.0 0.0 0.00 0.00 0.00 99 1017.7
20260904101714 72 229 0.0 0.0 0.00 0.00 0.00 99 1017.4
20260904101209 72 215 0.0 0.0 0.00 0.00 0.00 99 1017.4
20260904100705 72 230 0.0 0.0 0.00 0.00 0.00 99 1017.5
20260904100201 72 230 0.0 0.0 0.00 0.00 0.00 99 1017.5
20260904095700 72 230 0.0 0.0 0.00 0.00 0.00 99 1017.8
20260904095155 72 230 0.0 0.0 0.00 0.00 0.00 99 1017.3
20260904094650 72 230 0.0 0.0 0.00 0.00 0.00 99 1017.6
20260904094145 72 230 0.0 0.0 0.00 0.00 0.00 99 1017.6
20260904093642 72 221 0.0 0.0 0.00 0.00 0.00 99 1017.3
20260904093141 72 208 0.0 0.0 0.00 0.00 0.00 99 1017.3
20260904092637 72 208 0.0 0.0 0.00 0.00 0.00 99 1017.2
20260904092133 72 210 0.0 0.0 0.00 0.00 0.00 99 1017.1
20260904091629 72 214 0.0 0.0 0.00 0.00 0.00 99 1017.1
20260904091129 72 214 0.0 0.0 0.00 0.00 0.00 99 1017.1
20260904090624 73 214 0.0 0.0 0.00 0.00 0.00 99 1016.9
20260904090120 73 213 0.0 0.0 0.00 0.00 0.00 99 1017.2
20260904085615 73 224 0.0 0.0 0.00 0.00 0.00 99 1017.2
20260904085114 73 224 0.0 0.0 0.00 0.00 0.00 99 1017.1
20260904084610 73 229 0.0 0.0 0.00 0.00 0.00 99 1017.1
20260904084106 73 229 0.0 0.0 0.00 0.00 0.00 99 1017.2
20260904083602 73 231 0.0 0.0 0.00 0.00 0.00 99 1016.9
20260904083057 73 231 0.0 0.0 0.00 0.00 0.00 99 1017.0
20260904082552 73 231 0.0 0.0 0.00 0.00 0.00 99 1017.0
20260904082048 73 223 0.0 0.0 0.00 0.00 0.00 99 1016.8
20260904081543 73 230 0.0 0.0 0.00 0.00 0.00 99 1016.9
20260904081039 74 230 0.0 0.0 0.00 0.00 0.00 99 1016.8
20260904080534 73 230 0.0 0.0 0.00 0.00 0.00 99 1016.7
20260904080030 74 230 0.0 0.0 0.00 0.00 0.00 99 1016.7
20260904075526 74 230 0.0 0.0 0.00 0.00 0.00 99 1016.6
20260904075021 74 229 0.0 0.0 0.00 0.00 0.00 99 1016.8
20260904074515 74 239 0.0 0.0 0.00 0.00 0.00 99 1016.7
20260904074014 74 222 0.0 0.0 0.00 0.00 0.00 99 1016.9
20260904073510 75 223 0.0 0.0 0.00 0.00 0.00 99 1016.8
20260904073006 75 213 0.0 0.0 0.00 0.00 0.00 99 1016.7
20260904072502 75 177 0.0 0.0 0.00 0.00 0.00 99 1016.7
20260904071956 75 182 0.0 0.0 0.00 0.00 0.00 99 1016.7
20260904071451 75 182 0.0 0.0 0.00 0.00 0.00 99 1016.8
20260904070946 75 175 0.0 0.0 0.00 0.00 0.00 99 1016.8
20260904070444 75 175 0.0 0.0 0.00 0.00 0.00 99 1016.7
20260904065939 75 175 0.0 0.0 0.00 0.00 0.00 98 1016.7
20260904065436 75 174 0.0 0.0 0.00 0.00 0.00 98 1016.8
20260904064931 75 183 0.0 0.0 0.00 0.00 0.00 98 1017.0
20260904064427 76 184 0.0 0.0 0.00 0.00 0.00 98 1017.0
20260904063922 75 200 0.0 0.0 0.00 0.00 0.00 99 1017.0
20260904063419 75 178 0.0 0.0 0.00 0.00 0.00 98 1017.1
20260904062913 75 177 0.0 0.0 0.00 0.00 0.00 98 1017.2
20260904062409 75 177 0.0 0.0 0.00 0.00 0.00 98 1017.2
20260904061905 75 177 0.0 0.0 0.00 0.00 0.00 98 1017.4
20260904061401 75 177 0.0 0.0 0.00 0.00 0.00 97 1017.6
20260904060857 75 177 0.0 0.0 0.00 0.00 0.00 97 1017.5
20260904060353 75 176 0.0 0.0 0.00 0.00 0.00 97 1017.4
20260904055848 75 179 0.0 0.0 0.00 0.00 0.00 97 1017.5
20260904055343 76 179 0.0 0.0 0.00 0.00 0.00 97 1017.5
20260904054838 76 179 0.0 0.0 0.00 0.00 0.00 96 1017.8
20260904054334 76 179 0.0 0.0 0.00 0.00 0.00 96 1017.9
20260904053830 76 179 0.0 0.0 0.00 0.00 0.00 96 1017.6
20260904053329 76 181 0.0 0.0 0.00 0.00 0.00 96 1018.0
20260904052825 76 181 0.0 0.0 0.00 0.00 0.00 95 1017.9
20260904052321 76 181 0.0 0.0 0.00 0.00 0.00 95 1017.8
20260904051817 77 181 0.0 0.0 0.00 0.00 0.00 95 1017.9
20260904051313 77 180 0.0 0.0 0.00 0.00 0.00 95 1018.0
20260904050808 77 185 0.0 0.0 0.00 0.00 0.00 95 1017.9
20260904050305 77 187 0.0 0.0 0.00 0.00 0.00 94 1017.9
20260904045804 77 187 0.0 0.0 0.00 0.00 0.00 94 1017.9
20260904045259 77 196 0.0 0.0 0.00 0.00 0.00 94 1017.9
20260904044754 77 196 0.0 0.0 0.00 0.00 0.00 94 1017.9
20260904044251 77 200 0.0 0.0 0.00 0.00 0.00 94 1018.0
20260904043746 77 219 0.0 0.0 0.00 0.00 0.00 94 1017.9
20260904043243 77 220 0.0 0.0 0.00 0.00 0.00 93 1018.0
20260904042737 77 219 0.0 0.0 0.00 0.00 0.00 93 1018.0
20260904042234 77 220 0.0 0.0 0.00 0.00 0.00 93 1017.9
20260904041733 77 220 0.0 0.0 0.00 0.00 0.00 93 1018.0
20260904041229 77 220 0.0 0.0 0.00 0.00 0.00 92 1017.9
20260904040725 78 220 0.0 0.0 0.00 0.00 0.00 92 1017.9
20260904040220 78 220 0.0 0.0 0.00 0.00 0.00 92 1018.1
20260904035717 78 220 0.0 0.0 0.00 0.00 0.00 91 1017.9
20260904035212 78 220 0.0 0.0 0.00 0.00 0.00 91 1018.1
20260904034710 78 205 0.0 0.0 0.00 0.00 0.00 91 1018.1
20260904034207 78 195 0.0 0.0 0.00 0.00 0.00 90 1018.1
20260904033702 79 191 0.0 0.0 0.00 0.00 0.00 90 1018.1
20260904033159 79 191 0.0 0.0 0.00 0.00 0.00 89 1018.3
20260904032655 79 191 0.0 0.0 0.00 0.00 0.00 89 1017.9
20260904032153 80 192 0.0 0.0 0.00 0.00 0.00 88 1018.4
20260904031648 80 191 0.0 0.0 0.00 0.00 0.00 88 1018.3
20260904031144 80 190 0.0 0.0 0.00 0.00 0.00 87 1018.3
20260904030639 80 191 0.0 0.0 0.00 0.00 0.00 86 1018.3
20260904030134 80 191 0.0 0.0 0.00 0.00 0.00 86 1018.5
20260904025630 80 190 0.0 0.0 0.00 0.00 0.00 85 1018.3
20260904025125 80 187 0.0 0.0 0.00 0.00 0.00 85 1018.3
20260904024621 80 186 0.0 0.0 0.00 0.00 0.00 84 1018.2
20260904024116 81 194 0.0 0.0 0.00 0.00 0.00 84 1018.2
20260904023612 81 185 0.0 0.0 0.00 0.00 0.00 83 1018.3
20260904023108 81 187 0.0 0.0 0.00 0.00 0.00 82 1018.3
20260904022608 81 187 0.0 0.0 0.00 0.00 0.00 82 1018.2
20260904022105 81 187 0.0 0.0 0.00 0.00 0.00 81 1018.1
20260904021600 81 181 0.0 0.0 0.00 0.00 0.00 81 1018.1
20260904021055 81 181 0.0 0.0 0.00 0.00 0.00 81 1018.1
20260904020550 82 226 0.0 0.0 0.00 0.00 0.00 79 1018.0
20260904020045 82 226 0.0 0.0 0.00 0.00 0.00 79 1018.1
20260904015539 82 226 0.0 0.0 0.00 0.00 0.00 78 1017.8
20260904015038 82 210 0.0 0.0 0.00 0.00 0.00 77 1017.6
20260904014532 82 186 0.0 0.0 0.00 0.00 0.00 76 1017.7
20260904014028 82 184 0.0 0.0 0.00 0.00 0.00 76 1017.7
20260904013524 83 179 0.0 0.0 0.00 0.00 0.00 76 1017.5
20260904013020 83 186 0.0 0.0 0.00 0.00 0.00 75 1017.7
20260904012520 83 187 0.0 0.0 0.00 0.00 0.00 75 1017.3
20260904012015 83 189 0.0 0.0 0.00 0.00 0.00 74 1017.4
20260904011514 83 177 0.0 0.0 0.00 0.00 0.00 75 1017.3
20260904011010 83 214 0.0 0.0 0.00 0.00 0.00 74 1017.4
20260904010506 84 219 0.0 0.0 0.00 0.00 0.00 73 1017.1
20260904010001 84 209 0.0 0.0 0.00 0.00 0.00 73 1017.0
20260904005456 84 181 0.0 0.0 0.00 0.00 0.00 72 1016.9
20260904004951 85 181 0.0 0.0 0.00 0.00 0.00 72 1016.9
20260904004447 85 182 0.0 0.0 0.00 0.00 0.00 71 1016.9
20260904003947 85 199 0.0 0.0 0.00 0.00 0.00 70 1016.9
20260904003443 86 210 0.0 0.0 0.00 0.00 0.00 70 1016.8
20260904002938 86 220 0.0 0.0 0.00 0.00 0.00 69 1016.6
20260904002435 86 224 0.0 0.0 0.00 0.00 0.00 69 1016.3
20260904001933 87 203 0.0 0.0 0.00 0.00 0.00 68 1016.4
20260904001429 87 205 0.0 0.0 0.00 0.00 0.00 68 1016.2
20260904000929 88 227 0.0 0.0 0.00 0.00 0.00 67 1016.3
20260904000429 88 218 0.0 0.0 0.00 0.00 0.00 66 1016.0
20260903235924 88 216 0.0 0.0 0.00 0.00 0.00 65 1016.0
20260903235420 89 220 0.0 0.0 0.00 0.00 0.00 65 1015.9
20260903234919 89 212 0.0 0.0 0.00 0.00 0.00 64 1016.0
20260903234416 90 216 0.0 0.0 0.00 0.00 0.00 63 1016.1
20260903233912 91 225 0.0 0.0 0.00 0.00 0.00 62 1015.9
20260903233408 91 218 0.0 0.0 0.00 0.00 0.00 61 1015.8
20260903232908 91 215 0.0 0.0 0.00 0.00 0.00 61 1015.7
20260903232403 92 160 0.0 0.0 0.00 0.00 0.00 60 1015.6
20260903231902 92 191 0.0 0.0 0.00 0.00 0.00 60 1015.7
20260903231357 92 226 0.0 0.0 0.00 0.00 0.00 60 1015.8
20260903230853 92 228 0.0 0.0 0.00 0.00 0.00 60 1015.6
20260903230348 93 217 0.0 0.0 0.00 0.00 0.00 59 1015.7
20260903225844 93 223 0.0 0.0 0.00 0.00 0.00 58 1015.6
20260903225339 94 110 0.0 0.0 0.00 0.00 0.00 58 1015.8
20260903224836 94 231 0.0 0.0 0.00 0.00 0.00 57 1015.8
20260903224332 94 155 0.0 0.0 0.00 0.00 0.00 57 1015.9
20260903223827 94 233 0.0 0.0 0.00 0.00 0.00 57 1015.8
20260903223326 95 215 0.0 0.0 0.00 0.00 0.00 56 1015.9
20260903222821 95 201 0.0 0.0 0.00 0.00 0.00 56 1015.5
20260903222320 95 231 0.0 0.0 0.00 0.00 0.00 56 1015.7
20260903221815 95 224 0.0 0.0 0.00 0.00 0.00 55 1015.7
20260903221314 96 209 0.0 0.0 0.00 0.00 0.00 55 1015.7
20260903220812 96 230 0.0 0.0 0.00 0.00 0.00 54 1015.6
20260903220307 96 204 0.0 0.0 0.00 0.00 0.00 54 1015.6
20260903215805 96 99 0.0 0.0 0.00 0.00 0.00 55 1015.5
20260903215305 96 226 0.0 0.0 0.00 0.00 0.00 55 1015.5
20260903214759 96 230 0.0 0.0 0.00 0.00 0.00 54 1015.5
20260903214256 97 187 0.0 0.0 0.00 0.00 0.00 53 1015.5
20260903213750 97 216 0.0 0.0 0.00 0.00 0.00 52 1015.5
20260903213246 98 225 0.0 0.0 0.00 0.00 0.00 51 1015.8
20260903212742 99 219 0.0 0.0 0.00 0.00 0.00 49 1015.7
20260903212239 99 226 0.0 0.0 0.00 0.00 0.00 50 1015.6
20260903211737 98 188 0.0 0.0 0.00 0.00 0.00 51 1015.6
20260903211234 98 217 0.0 0.0 0.00 0.00 0.00 51 1015.4
20260903210730 97 199 0.0 0.0 0.00 0.00 0.00 52 1015.6
20260903210225 99 207 0.0 0.0 0.00 0.00 0.00 50 1015.8
20260903205724 99 231 0.0 0.0 0.00 0.00 0.00 46 1015.7
20260903205223 100 195 0.0 0.0 0.00 0.00 0.00 46 1015.7
20260903204719 100 201 0.0 0.0 0.00 0.00 0.00 45 1015.8
20260903204215 101 190 0.0 0.0 0.00 0.00 0.00 46 1015.7
20260903203711 100 260 0.0 0.0 0.00 0.00 0.00 46 1015.8
20260903203206 101 260 0.0 0.0 0.00 0.00 0.00 46 1015.7
20260903202700 101 79 0.0 0.0 0.00 0.00 0.00 46 1015.8
20260903202156 102 207 0.0 0.0 0.00 0.00 0.00 45 1016.0
20260903201655 100 189 0.0 0.0 0.00 0.00 0.00 47 1016.0
20260903201150 101 199 0.0 0.0 0.00 0.00 0.00 46 1016.1
20260903200644 102 90 0.0 0.0 0.00 0.00 0.00 46 1016.1
20260903200140 101 233 0.0 0.0 0.00 0.00 0.00 46 1016.3
20260903195636 101 310 0.0 0.0 0.00 0.00 0.00 46 1016.3
20260903195131 99 216 0.0 0.0 0.00 0.00 0.00 49 1016.6
20260903194626 99 235 0.0 0.0 0.00 0.00 0.00 48 1016.3
20260903194126 99 246 0.0 0.0 0.00 0.00 0.00 48 1016.7
20260903193622 99 164 0.0 0.0 0.00 0.00 0.00 48 1016.4
20260903193118 99 151 0.0 0.0 0.00 0.00 0.00 49 1016.8
20260903192614 99 58 0.0 0.0 0.00 0.00 0.00 48 1016.5
20260903192114 99 283 0.0 0.0 0.00 0.00 0.00 49 1016.7
20260903191610 101 187 0.0 0.0 0.00 0.00 0.00 45 1016.7
20260903191105 100 189 0.0 0.0 0.00 0.00 0.00 47 1016.6
20260903190604 98 222 0.0 0.0 0.00 0.00 0.00 51 1016.8
20260903190059 99 197 0.0 0.0 0.00 0.00 0.00 49 1016.9
20260903185554 100 262 0.0 0.0 0.00 0.00 0.00 49 1017.0
20260903185050 103 152 0.0 0.0 0.00 0.00 0.00 45 1017.0
20260903184546 100 97 0.0 0.0 0.00 0.00 0.00 47 1017.0
20260903184041 101 52 0.0 0.0 0.00 0.00 0.00 46 1017.0
20260903183540 100 204 0.0 0.0 0.00 0.00 0.00 47 1017.0
20260903183035 100 62 0.0 0.0 0.00 0.00 0.00 48 1017.0
20260903182533 100 159 0.0 0.0 0.00 0.00 0.00 48 1016.9
20260903182030 101 226 0.0 0.0 0.00 0.00 0.00 47 1017.2
20260903181528 100 217 0.0 0.0 0.00 0.00 0.00 49 1017.2
20260903181023 101 233 0.0 0.0 0.00 0.00 0.00 48 1017.2
20260903180519 99 26 0.0 0.0 0.00 0.00 0.00 49 1017.5
20260903180018 99 133 0.0 0.0 0.00 0.00 0.00 50 1017.4
20260903175517 100 166 0.0 0.0 0.00 0.00 0.00 49 1017.4
20260903175016 98 214 0.0 0.0 0.00 0.00 0.00 53 1017.5
20260903174511 96 166 0.0 0.0 0.00 0.00 0.00 54 1017.4
20260903174012 97 114 0.0 0.0 0.00 0.00 0.00 53 1017.5
20260903173506 99 128 0.0 0.0 0.00 0.00 0.00 51 1017.6
20260903173003 100 160 0.0 0.0 0.00 0.00 0.00 49 1017.8
20260903172457 99 207 0.0 0.0 0.00 0.00 0.00 51 1017.7
20260903171953 99 238 0.0 0.0 0.00 0.00 0.00 51 1017.8
20260903171447 98 174 0.0 0.0 0.00 0.00 0.00 52 1018.1
20260903170942 98 256 0.0 0.0 0.00 0.00 0.00 52 1017.7
20260903170437 97 0 0.0 0.0 0.00 0.00 0.00 53 1017.9
20260903165936 99 216 0.0 0.0 0.00 0.00 0.00 52 1018.0
20260903165430 99 1 0.0 0.0 0.00 0.00 0.00 52 1018.1
20260903164931 99 293 0.0 0.0 0.00 0.00 0.00 52 1018.2
20260903164426 98 355 0.0 0.0 0.00 0.00 0.00 51 1018.2
20260903163925 100 222 0.0 0.0 0.00 0.00 0.00 51 1018.0
20260903163421 99 225 0.0 0.0 0.00 0.00 0.00 52 1018.1
20260903162917 98 13 0.0 0.0 0.00 0.00 0.00 52 1018.5
20260903162414 98 212 0.0 0.0 0.00 0.00 0.00 52 1018.3
20260903161909 98 214 0.0 0.0 0.00 0.00 0.00 54 1018.5
20260903161404 96 179 0.0 0.0 0.00 0.00 0.00 54 1018.4
20260903160900 98 217 0.0 0.0 0.00 0.00 0.00 53 1018.6
20260903160359 97 29 0.0 0.0 0.00 0.00 0.00 54 1018.7
20260903155857 96 144 0.0 0.0 0.00 0.00 0.00 54 1018.8
20260903155353 95 168 0.0 0.0 0.00 0.00 0.00 57 1018.8
20260903154848 94 249 0.0 0.0 0.00 0.00 0.00 58 1018.8
20260903154345 94 240 0.0 0.0 0.00 0.00 0.00 58 1018.7
20260903153839 93 229 0.0 0.0 0.00 0.00 0.00 60 1019.1
20260903153335 94 328 0.0 0.0 0.00 0.00 0.00 61 1019.0
20260903152832 93 158 0.0 0.0 0.00 0.00 0.00 60 1019.1
20260903152327 92 80 0.0 0.0 0.00 0.00 0.00 62 1019.0
20260903151822 93 236 0.0 0.0 0.00 0.00 0.00 63 1018.9
20260903151318 93 181 0.0 0.0 0.00 0.00 0.00 60 1018.8
20260903150817 91 210 0.0 0.0 0.00 0.00 0.00 63 1019.0
20260903150318 92 192 0.0 0.0 0.00 0.00 0.00 65 1019.2
20260903145812 91 190 0.0 0.0 0.00 0.00 0.00 61 1019.0